Home   Weather   Moose Jaw   Past weeks

Flag for Canada Past Weather in Moose Jaw, Saskatchewan, Canada — Yesterday and Last 2 Weeks

Now
52 °F

Clear.


Feels Like: 49 °F
Forecast: 44 / 62 °F
Wind: 9 mph from Northwest

Location: Regina Weather Station

Current Time: Sep 28, 2016 at 1:03:45 AM

Latest Report: Sep 28, 2016 at 12:00 AM


Visibility: 15 mi

Pressure: 30.08 "Hg (28.12 "Hg at 560m altitude)

Humidity: 88%

Dew Point: 48 °F

Location of Moose JawLocation

Past Weather in Moose Jaw — Graph

°F

Moose Jaw Temperature Yesterday

Maximum temperature yesterday: 79 °F (at 4:00 PM)
Minimum temperature yesterday: 39 °F (at 3:00 AM)
Average temperature yesterday: 57 °F

High & Low Weather Summary for the Past Weeks

 TemperatureHumidityPressure
High79 °F (Sep 17, 1:00 PM)100% (Sep 15, 4:00 AM)30.36 "Hg (Sep 15, 4:00 AM)
Low32 °F (Sep 14, 6:00 AM)23% (Sep 17, 3:00 PM)29.47 "Hg (Sep 18, 6:00 AM)
Average53 °F67%30.03 "Hg
* Reported Sep 13 12:00 AM — Sep 28 12:00 AM, Moose Jaw, Weather by CustomWeather, © 2016

Note: Actual official high and low records may vary slightly from our data, if they occured in-between our weather recording intervals... More about our weather records

Advertising

Moose Jaw Weather History for the Previous 24 Hours

Scroll right to see more
 ConditionsComfort  
Time TempWeatherWind HumidityBarometerVisibility
12:00 AM
Wed, Sep 28
52 °FClear.9 mph88%30.08 "Hg15 mi
11:00 PM
Tue, Sep 27
54 °FClear.7 mph77%30.07 "Hg15 mi
10:02 PM55 °FClear.10 mph72%30.03 "Hg15 mi
9:00 PM59 °FClear.9 mph63%29.99 "Hg15 mi
8:00 PM61 °FClear.10 mph63%29.96 "Hg15 mi
7:00 PM66 °FClear.12 mph52%29.93 "Hg15 mi
6:00 PM73 °FSunny.5 mph47%29.91 "Hg15 mi
5:00 PM77 °FSunny.7 mph36%29.89 "Hg15 mi
4:00 PM79 °FSunny.10 mph34%29.88 "Hg15 mi
3:00 PM77 °FSunny.15 mph39%29.89 "Hg15 mi
2:00 PM75 °FPassing clouds.16 mph39%29.90 "Hg15 mi
1:00 PM72 °FPassing clouds.16 mph41%29.91 "Hg15 mi
12:00 PM70 °FSunny.14 mph40%29.93 "Hg15 mi
11:00 AM64 °FSunny.18 mph46%29.96 "Hg15 mi
10:00 AM57 °FSunny.16 mph55%29.98 "Hg15 mi
9:00 AM52 °FSunny.15 mph58%30.00 "Hg15 mi
8:00 AM45 °FSunny.14 mph71%30.00 "Hg15 mi
7:00 AM43 °FSunny.13 mph76%30.00 "Hg15 mi
6:00 AM41 °FClear.10 mph81%30.01 "Hg15 mi
5:00 AM41 °FClear.10 mph81%30.01 "Hg15 mi
4:00 AM39 °FClear.10 mph87%30.03 "Hg15 mi
3:00 AM39 °FClear.9 mph87%30.04 "Hg15 mi
2:00 AM41 °FClear.8 mph81%30.05 "Hg15 mi
1:00 AM41 °FClear.7 mph81%30.07 "Hg15 mi
Weather by CustomWeather, © 2016

See weather overviewHow to use our weather pages